TimeCST,TemperatureF,Dew PointF,Humidity,Sea Level PressureIn,VisibilityMPH,Wind Direction,Wind SpeedMPH,Gust SpeedMPH,PrecipitationIn,Events,Conditions,WindDirDegrees,DateUTC
12:15 AM,44.6,30.2,57,29.82,10.0,ESE,5.8,-,N/A,,Overcast,120,2013-03-05 06:15:00
1:55 AM,46.4,30.2,53,29.81,10.0,SE,8.1,-,0.01,,Overcast,130,2013-03-05 07:55:00
2:15 AM,46.4,32.0,57,29.80,10.0,SE,9.2,-,N/A,,Overcast,140,2013-03-05 08:15:00
2:35 AM,44.6,32.0,61,29.79,10.0,SE,9.2,-,N/A,,Overcast,130,2013-03-05 08:35:00
2:55 AM,44.6,33.8,66,29.78,10.0,SE,10.4,-,N/A,,Overcast,130,2013-03-05 08:55:00
3:15 AM,44.6,33.8,66,29.77,10.0,SE,9.2,-,N/A,,Overcast,130,2013-03-05 09:15:00
3:35 AM,44.6,33.8,66,29.77,10.0,SE,6.9,-,N/A,,Overcast,130,2013-03-05 09:35:00
3:55 AM,44.6,33.8,66,29.77,10.0,SE,5.8,-,N/A,,Overcast,130,2013-03-05 09:55:00
4:15 AM,44.6,33.8,66,29.77,10.0,ESE,5.8,-,N/A,,Overcast,120,2013-03-05 10:15:00
4:35 AM,44.6,33.8,66,29.77,10.0,SE,5.8,-,N/A,,Mostly Cloudy,130,2013-03-05 10:35:00
4:55 AM,44.6,33.8,66,29.77,10.0,SE,4.6,-,N/A,,Partly Cloudy,130,2013-03-05 10:55:00
5:15 AM,44.6,33.8,66,29.78,10.0,SE,3.5,-,N/A,,Clear,130,2013-03-05 11:15:00
5:35 AM,42.8,32.0,66,29.79,10.0,Calm,Calm,-,N/A,,Mostly Cloudy,0,2013-03-05 11:35:00
6:15 AM,41.0,30.2,65,29.78,10.0,East,3.5,-,N/A,,Overcast,100,2013-03-05 12:15:00
6:35 AM,41.0,30.2,65,29.77,10.0,East,3.5,-,N/A,,Overcast,100,2013-03-05 12:35:00
7:35 AM,42.8,33.8,70,29.78,10.0,Calm,Calm,-,N/A,,Overcast,0,2013-03-05 13:35:00
7:55 AM,42.8,33.8,70,29.78,10.0,Calm,Calm,-,N/A,,Mostly Cloudy,0,2013-03-05 13:55:00
8:15 AM,44.6,35.6,71,29.77,10.0,Calm,Calm,-,N/A,,Scattered Clouds,0,2013-03-05 14:15:00
8:35 AM,44.6,35.6,71,29.76,10.0,Calm,Calm,-,N/A,,Partly Cloudy,0,2013-03-05 14:35:00
8:55 AM,46.4,37.4,71,29.75,10.0,Calm,Calm,-,N/A,,Clear,0,2013-03-05 14:55:00
9:15 AM,46.4,37.4,71,29.75,10.0,West,3.5,-,N/A,,Clear,280,2013-03-05 15:15:00
9:36 AM,46.4,37.4,71,29.75,10.0,West,4.6,-,N/A,,Scattered Clouds,260,2013-03-05 15:36:00
9:55 AM,46.4,35.6,66,29.75,10.0,West,12.7,-,N/A,,Overcast,280,2013-03-05 15:55:00
10:15 AM,46.4,35.6,66,29.74,10.0,West,10.4,-,N/A,,Overcast,280,2013-03-05 16:15:00
10:35 AM,46.4,35.6,66,29.75,10.0,WNW,15.0,18.4,N/A,,Overcast,290,2013-03-05 16:35:00
10:55 AM,44.6,33.8,66,29.76,10.0,WNW,19.6,24.2,N/A,,Overcast,300,2013-03-05 16:55:00
11:15 AM,42.8,32.0,66,29.76,10.0,WNW,21.9,25.3,N/A,,Overcast,300,2013-03-05 17:15:00
11:35 AM,42.8,30.2,61,29.76,10.0,NW,19.6,31.1,N/A,,Overcast,310,2013-03-05 17:35:00
11:55 AM,41.0,28.4,61,29.76,10.0,NW,20.7,28.8,N/A,,Overcast,310,2013-03-05 17:55:00
12:35 PM,37.4,26.6,65,29.79,9.0,WNW,19.6,32.2,0.01,,Overcast,300,2013-03-05 18:35:00
12:55 PM,35.6,24.8,65,29.80,3.0,WNW,19.6,26.5,0.04,,Overcast,290,2013-03-05 18:55:00
1:35 PM,33.8,24.8,70,29.81,2.0,WNW,18.4,25.3,0.03,,Overcast,290,2013-03-05 19:35:00
1:55 PM,33.8,24.8,70,29.81,2.5,WNW,23.0,-,0.05,,Overcast,300,2013-03-05 19:55:00
2:15 PM,33.8,24.8,70,29.82,4.0,WNW,19.6,28.8,0.01,,Overcast,290,2013-03-05 20:15:00
2:35 PM,33.8,24.8,70,29.83,3.0,WNW,19.6,27.6,0.01,,Overcast,290,2013-03-05 20:35:00
2:55 PM,33.8,24.8,70,29.84,10.0,WNW,25.3,31.1,0.01,,Overcast,290,2013-03-05 20:55:00
3:15 PM,33.8,24.8,70,29.85,10.0,WNW,28.8,34.5,N/A,,Overcast,300,2013-03-05 21:15:00
3:35 PM,35.6,24.8,65,29.86,10.0,WNW,25.3,36.8,N/A,,Overcast,290,2013-03-05 21:35:00
3:55 PM,35.6,24.8,65,29.87,10.0,WNW,25.3,36.8,N/A,,Overcast,300,2013-03-05 21:55:00
4:15 PM,35.6,24.8,65,29.88,10.0,WNW,24.2,34.5,N/A,,Overcast,290,2013-03-05 22:15:00
4:55 PM,35.6,21.2,56,29.91,10.0,WNW,27.6,34.5,N/A,,Overcast,290,2013-03-05 22:55:00
5:35 PM,33.8,19.4,56,29.93,10.0,WNW,31.1,38.0,N/A,,Overcast,300,2013-03-05 23:35:00
5:55 PM,33.8,17.6,52,29.95,10.0,WNW,25.3,36.8,N/A,,Overcast,300,2013-03-05 23:55:00
6:15 PM,33.8,15.8,48,29.95,10.0,WNW,26.5,39.1,N/A,,Overcast,290,2013-03-06 00:15:00
6:35 PM,33.8,15.8,48,29.96,10.0,WNW,27.6,40.3,N/A,,Overcast,290,2013-03-06 00:35:00
6:55 PM,32.0,15.8,51,29.97,10.0,WNW,26.5,40.3,N/A,,Overcast,290,2013-03-06 00:55:00
7:15 PM,32.0,15.8,51,29.97,10.0,West,24.2,29.9,N/A,,Overcast,280,2013-03-06 01:15:00
7:35 PM,32.0,15.8,51,29.97,10.0,West,18.4,26.5,N/A,,Overcast,280,2013-03-06 01:35:00
7:55 PM,32.0,17.6,55,29.97,10.0,West,21.9,28.8,N/A,,Overcast,280,2013-03-06 01:55:00
8:15 PM,32.0,17.6,55,29.96,10.0,WNW,24.2,29.9,N/A,,Overcast,290,2013-03-06 02:15:00
8:35 PM,32.0,17.6,55,29.96,10.0,West,19.6,27.6,N/A,,Overcast,280,2013-03-06 02:35:00
8:55 PM,32.0,17.6,55,29.96,10.0,WNW,19.6,27.6,N/A,,Overcast,290,2013-03-06 02:55:00
9:15 PM,32.0,19.4,60,29.96,10.0,West,18.4,25.3,N/A,,Overcast,280,2013-03-06 03:15:00
9:35 PM,32.0,19.4,60,29.97,10.0,West,17.3,26.5,N/A,,Overcast,280,2013-03-06 03:35:00
9:55 PM,32.0,19.4,60,29.97,9.0,West,19.6,25.3,N/A,,Overcast,280,2013-03-06 03:55:00
10:15 PM,32.0,19.4,60,29.97,10.0,West,19.6,-,N/A,,Overcast,280,2013-03-06 04:15:00
10:35 PM,32.0,19.4,60,29.97,10.0,WNW,20.7,27.6,N/A,,Overcast,290,2013-03-06 04:35:00
10:55 PM,32.0,19.4,60,29.97,10.0,WNW,25.3,29.9,N/A,,Overcast,300,2013-03-06 04:55:00
11:15 PM,32.0,19.4,60,29.97,10.0,WNW,20.7,27.6,N/A,,Overcast,290,2013-03-06 05:15:00
11:35 PM,32.0,19.4,60,29.97,10.0,WNW,23.0,29.9,N/A,,Overcast,290,2013-03-06 05:35:00
11:55 PM,32.0,19.4,60,29.97,10.0,WNW,23.0,29.9,N/A,,Overcast,290,2013-03-06 05:55:00